Regional Weather Roundup
Issued by NWS Kansas City/Pleasant Hill, MO

Home | Current Version | Previous Version | Graphics & Text | Print | Product List | Glossary Off
Versions: 1 2 3 4 5 6 7 8 9 10 11 12 13 14 15 16 17 18 19 20 21 22 23 24 25 26 27 28 29 30 31 32 33 34 35 36 37 38 39 40 41 42 43 44 45 46 47 48 49 50

000
ASUS43 KEAX 180604
RWREAX

WEATHER ROUNDUP FOR EASTERN KANSAS AND NORTHWEST MISSOURI
NATIONAL WEATHER SERVICE KANSAS CITY/PLEASANT HILL MO
1200 AM CST THU DEC 18 2014

KSZ040-057-103>105-MOZ028-029-037-043-180700-
...KANSAS CITY METROPOLITAN AREA...

CITY           SKY/WX    TMP DP  RH WIND       PRES   REMARKS
K.C. INTL      CLOUDY    30  23  75 E6        30.27R WCI  24
6HR MIN TEMP:  29; 6HR MAX TEMP:  30;

K.C. DOWNTOWN  LGT SNOW  31  24  75 E6        30.27R WCI  25
6HR MIN TEMP:  31; 6HR MAX TEMP:  32; 6HR PCP: TRACE;

LEES SUMMIT    LGT SNOW  30  23  75 E9        30.25F WCI  22
6HR MIN TEMP:  29; 6HR MAX TEMP:  30; 6HR PCP: TRACE;

OLATHE - IXD   SNOW      28  27  96 E3        30.25F VSB 1/2
6HR MIN TEMP:  28; 6HR MAX TEMP:  30; 6HR PCP:  0.13;

OLATHE - OJC   LGT SNOW  28  27  96 E3        30.24S VSB 3/4
6HR MIN TEMP:  28; 6HR MAX TEMP:  31; 6HR PCP:  0.04;

LAWRENCE       LGT SNOW  29  27  92 CALM      30.26F FOG

$$

MOZ001>008-011>017-020>025-030>033-038>040-044>046-053-054-180700-
...NORTHERN AND CENTRAL MISSOURI...

CITY           SKY/WX    TMP DP  RH WIND       PRES   REMARKS
ST. JOSEPH     CLOUDY    30  22  72 E6        30.28R WCI  24
6HR MIN TEMP:  29; 6HR MAX TEMP:  30;

MOSBY          CLOUDY    32  27  80 CALM      30.29R
WARRENSBURG    LGT SNOW  30  27  86 CALM      30.27S
WHITEMAN AFB   FLURRIES  31  25  78 E2        30.26R
6HR MIN TEMP:  31; 6HR MAX TEMP:  31; 6HR PCP: TRACE;

CLINTON        LGT SNOW  32  32 100 NE5       30.27R WCI  27
SEDALIA        CLOUDY    33  25  72 NE3       30.26S
6HR MIN TEMP:  32; 6HR MAX TEMP:  33;

WARSAW         NOT AVBL
MARSHALL       CLOUDY    32  28  86 E5        30.27F WCI  27
CHILLICOTHE      N/A     31  22  69 CALM      30.31R
6HR MIN TEMP:  30; 6HR MAX TEMP:  31;

MOBERLY        CLOUDY    28  21  74 E7        30.28S WCI  21
KIRKSVILLE     CLOUDY    26  22  84 NE6       30.28F WCI  19
6HR MIN TEMP:  24; 6HR MAX TEMP:  27;


$$

MOZ041-047>049-056>058-063>065-088>090-097-180700-
...EASTERN AND SOUTHERN MISSOURI...

CITY           SKY/WX    TMP DP  RH WIND       PRES   REMARKS
ST. LOUIS INTL CLOUDY    31  23  72 NE6       30.31R WCI  25
6HR MIN TEMP:  31; 6HR MAX TEMP:  36;

SPIRIT OF STL  CLOUDY   N/A N/A N/A NE3       30.30S
COLUMBIA       CLOUDY    31  25  78 E8        30.25F WCI  23
JEFFERSON CITY CLOUDY    34  25  69 E6        30.27F WCI  29
MEXICO         CLOUDY    30  28  93 E5        30.29R WCI  25
HANNIBAL       CLOUDY    27  21  80 CALM      30.30S
ROLLA          MIX PCPN  32  27  81 CALM      30.23F
OSAGE BEACH    CLOUDY    30  28  93 E5        30.24F WCI  25
SPRINGFIELD    CLOUDY    34  32  92 SE6       30.19S WCI  29
JOPLIN         LGT RAIN  34  32  92 NE3       30.22R FOG
WEST PLAINS    MIX PCPN  33  31  92 E7        30.21F WCI  27

$$

IAZ060-094-KSZ022-034>040-054-083-096-NEZ052-066-093-180700-
...KANSAS...SOUTHEAST NEBRASKA AND IOWA...

CITY           SKY/WX    TMP DP  RH WIND       PRES   REMARKS
TOPEKA         LGT SNOW  29  27  92 E5        30.26S FOG     WCI  24
6HR MIN TEMP:  29; 6HR MAX TEMP:  31; 6HR PCP:  0.07;

MANHATTAN      LGT SNOW  27  27 100 NE5       30.23F VSB 3/4 WCI  22
EMPORIA        LGT SNOW  28  27  96 E3        30.21S FOG
CHANUTE        LGT SNOW  31  30  96 NE7       30.21F FOG     WCI  24
WICHITA        LGT SNOW  31  28  89 E9        30.17S FOG     WCI  23
OMAHA          CLOUDY    28  20  71 E5        30.28S WCI  23
LINCOLN        CLOUDY    27  19  72 SE6       30.26S WCI  20
FALLS CITY     CLOUDY    29  22  75 SE3       30.26R
LAMONI         CLOUDY    26  18  71 E6        30.27S WCI  19
DES MOINES     PTCLDY    21  15  78 SW5       30.31R WCI  15

$$




USA.gov is the U.S. government's official web portal to all federal, state and local government web resources and services.